Tracking 30922 objects as of 2-Jul-2025
HD Live streaming from Space Station
objects crossing your sky now

STARLINK-4287

Track STARLINK-4287 now!
10-day predictions
STARLINK-4287 is classified as:


NORAD ID: 53020
Int'l Code: 2022-076AL
Perigee: 545.9 km
Apogee: 547.8 km
Inclination: 53.2 °
Period: 95.4 minutes
Semi major axis: 6917 km
RCS: Unknown
Launch date: July 7, 2022
Source: United States (US)
Launch site: AIR FORCE EASTERN TEST RANGE (AFETR)
Your satellite tracking list
Your tracking list is empty




NASA's NSSDC Master Catalog

Two Line Element Set (TLE):
1 53020U 22076AL  25182.57419573  .00000071  00000-0  22526-4 0  9995
2 53020  53.2175 131.4219 0001388  79.5673 280.5476 15.08837626165542
Source of the keplerian elements: AFSPC